Home > Weather > Luhansk > Past weeks

Flag for Ukraine Weather for the Past 2 Weeks in Luhansk, Ukraine

Now
61 °F

Sunny.


Feels Like: 61 °F
Forecast: 47 / 66 °F
Wind: 10 mph from East

Location: Rostov-Na-Donu

Current Time: May 3, 2016 at 7:27:35 PM

Latest Report: May 3, 2016 at 7:00 PM


Visibility: 10 mi

Pressure: 29.92 "Hg

Humidity: 48%

Dew Point: 41 °F

Location of LuhanskLocation

Historic Weather in Luhansk — Graph

°F

Luhansk Temperature Yesterday

Maximum temperature yesterday: 66 °F (at 4:00 PM)
Minimum temperature yesterday: 46 °F (at 4:00 AM)
Average temperature yesterday: 57 °F

High & Low Weather Summary for the Past Weeks

 TemperatureHumidityPressure
High68 °F (Apr 19, 1:00 PM)94% (Apr 19, 7:00 AM)30.15 "Hg (Apr 19, 7:00 AM)
Low41 °F (Apr 22, 4:30 AM)26% (May 2, 2:30 PM)29.47 "Hg (Apr 25, 6:00 PM)
Average57 °F67%29.91 "Hg
* Reported Apr 18 6:00 PM — May 3 6:00 PM, Luhansk, Weather by CustomWeather, © 2016

Note: Actual official high and low records may vary slightly from our data, if they occured in-between our weather recording intervals... More about our weather records

Advertising

Luhansk Weather History for the Previous 24 Hours

Scroll right to see more
 ConditionsComfort  
Time TempWeatherWind HumidityBarometerVisibility
6:00 PM
Tue, May 3
63 °FSunny.15 mph45%29.92 "Hg10 mi
5:30 PM64 °FSunny.13 mph40%29.92 "Hg10 mi
5:00 PM64 °FSunny.15 mph37%29.92 "Hg10 mi
4:30 PM64 °FPassing clouds.13 mph40%29.95 "HgN/A
4:00 PM64 °FPassing clouds.13 mph40%29.95 "HgN/A
3:30 PM66 °FSunny.13 mph37%29.95 "Hg10 mi
3:00 PM64 °FPassing clouds.15 mph37%29.95 "HgN/A
2:30 PM64 °FPassing clouds.13 mph37%29.95 "HgN/A
2:00 PM64 °FPassing clouds.13 mph37%29.98 "HgN/A
1:30 PM64 °FPassing clouds.13 mph40%29.98 "HgN/A
1:00 PM64 °FSunny.10 mph37%29.98 "Hg10 mi
12:30 PM63 °FPassing clouds.10 mph39%30.01 "HgN/A
12:00 PM63 °FPassing clouds.13 mph42%30.01 "HgN/A
11:30 AM61 °FSunny.10 mph45%30.01 "Hg10 mi
11:00 AM61 °FSunny.13 mph52%30.01 "Hg10 mi
10:30 AM59 °FSunny.13 mph51%30.04 "Hg10 mi
10:00 AM59 °FSunny.8 mph51%30.04 "Hg10 mi
9:30 AM57 °FPassing clouds.13 mph55%30.04 "HgN/A
9:00 AM55 °FSunny.8 mph55%30.04 "Hg10 mi
8:30 AM55 °FSunny.10 mph59%30.04 "Hg10 mi
8:00 AM54 °FSunny.10 mph63%30.04 "Hg10 mi
7:30 AM52 °FSunny.10 mph67%30.04 "Hg10 mi
7:00 AM52 °FPassing clouds.8 mph62%30.04 "HgN/A
6:30 AM50 °FPassing clouds.8 mph62%30.04 "HgN/A
6:00 AM50 °FSunny.8 mph62%30.01 "Hg10 mi
5:30 AM50 °FSunny.8 mph62%30.01 "Hg10 mi
4:30 AM46 °FClear.1 mph71%30.01 "Hg5 mi
4:00 AM43 °FClear.1 mph81%30.01 "Hg5 mi
3:30 AM45 °FClear.1 mph76%30.01 "Hg5 mi
3:00 AM45 °FClear.No wind76%30.04 "Hg5 mi
2:30 AM46 °FClear.3 mph71%30.04 "Hg5 mi
2:00 AM50 °FClear.3 mph62%30.04 "Hg5 mi
1:30 AM50 °FClear.3 mph67%30.04 "Hg5 mi
1:00 AM50 °FClear.6 mph67%30.04 "Hg5 mi
12:00 AM54 °FClear.3 mph58%30.04 "Hg5 mi
11:30 PM
Mon, May 2
55 °FClear.3 mph63%30.04 "Hg5 mi
11:00 PM55 °FClear.3 mph63%30.04 "Hg5 mi
10:30 PM57 °FClear.3 mph59%30.04 "Hg5 mi
10:00 PM57 °FClear.3 mph55%30.07 "Hg5 mi
9:30 PM57 °FClear.6 mph55%30.07 "Hg5 mi
9:00 PM57 °FClear.6 mph51%30.07 "Hg5 mi
8:30 PM59 °FClear.6 mph45%30.07 "Hg5 mi
8:00 PM59 °FClear.3 mph39%30.07 "Hg5 mi
7:30 PM63 °FSunny.3 mph32%30.07 "Hg10 mi
7:00 PM63 °FPassing clouds.3 mph30%30.07 "HgN/A
Weather by CustomWeather, © 2016

See weather overviewHow to use our weather pages